Regional Weather Roundup
Issued by NWS

Home | Current Version | Previous Version | Graphics & Text | Print | Product List | Glossary On
Versions: 1 2 3 4 5 6 7 8 9 10 11 12 13 14 15 16 17 18 19 20 21 22 23 24 25 26 27 28 29 30 31 32 33 34 35 36 37 38 39 40 41 42 43 44 45 46 47 48 49 50
000
ASUS43 KIND 251709
RWRIN

WEATHER ROUNDUP FOR INDIANA
NATIONAL WEATHER SERVICE INDIANAPOLIS IN
100 PM EDT SAT MAR 25 2017

NOTE: "FAIR" INDICATES FEW OR NO CLOUDS BELOW 12,000 FEET WITH NO
SIGNIFICANT WEATHER AND/OR OBSTRUCTIONS TO VISIBILITY.

* - STATION DOES NOT REPORT WEATHER SUCH AS PRECIPITATION OR FOG.

+ - STATION NOT QUALITY CONTROLLED BY THE NATIONAL WEATHER SERVICE.
    USE DATA WITH CAUTION...ESPECIALLY DEWPOINT AND RELATIVE
    HUMIDITY OBSERVATIONS.

INZ001>003-010>013-019-020-251800-
NORTHWEST INDIANA

CITY           SKY/WX    TMP DP  RH WIND       PRES   REMARKS
GARY /AIRPORT/ DRIZZLE   45  45 100 N5        30.03F
KNOX *+        CLOUDY    59  41  51 E8        30.01F
LA PORTE +     CLOUDY    56  54  92 E12       30.03F FOG
MICHIGAN CITY+ CLOUDY    55  55 100 E5        30.03F
MONTICELLO +   CLOUDY    68  51  54 S14G21    29.99S
RENSSELAER +   CLOUDY    68  55  64 S9        29.98F
VALPARAISO     CLOUDY    60  57  89 E12       30.02F FOG

$$

LMZ046-743>745-251800-
SOUTHERN LAKE MICHIGAN

STATION/POSITION TIME  TEMP    WIND        PRES    WAVE
                       AIR SEA DIR/SP/G            HT
                 (UTC) (F)     (DEG/KT/KT) (MB)    (FT)
BURNS HARBOR     1704   41     270/  5/  6 1016.9
MICHIGAN CITY    1640   54      90/ 10/ 12   N/A

$$

INZ004-005-014>016-021>024-251800-
NORTH CENTRAL INDIANA

CITY           SKY/WX    TMP DP  RH WIND       PRES   REMARKS
ELKHART        MOSUNNY   54  48  82 E10       30.07R
GOSHEN         CLOUDY    61  50  67 E14       30.06S
LOGANSPORT +   PTSUNNY   70  52  52 S16G30    30.02S
PERU/GRISSOM   CLOUDY    70  54  56 S15       30.00S
ROCHESTER +    PTSUNNY   73  52  46 S14G23    30.02F
SOUTH BEND     CLOUDY    52  50  93 E8        30.06S
WARSAW +       CLOUDY    66  54  63 E8        30.04S

$$

INZ006>009-017-018-025>027-251800-
NORTHEAST INDIANA

CITY           SKY/WX    TMP DP  RH WIND       PRES   REMARKS
ANGOLA *+      MOSUNNY   57  48  72 E15       30.10F
AUBURN +       CLOUDY    61  48  63 E13G18    30.10S
FORT WAYNE     CLOUDY    71  53  52 S12       30.06F
HUNTINGTON +   MOSUNNY   72  52  49 S15G22    30.03F
KENDALLVILLE + CLOUDY    57  49  73 E14       30.08F

$$

INZ028-029-035-036-043>045-051>053-251800-
WEST CENTRAL INDIANA

CITY           SKY/WX    TMP DP  RH WIND       PRES   REMARKS
CRAWFORDSVL +  PTSUNNY   68  52  56 S22G30    29.99S
GREENCASTLE +  CLOUDY    68  52  56 S18G25    30.01S
LAFAYETTE      CLOUDY    70  52  52 S15G24    29.97F
TERRE HAUTE    CLOUDY    69  53  56 S20G28    29.98S

$$

INZ030>032-037>040-046>048-054>057-064-065-251800-
CENTRAL INDIANA

CITY           SKY/WX    TMP DP  RH WIND       PRES   REMARKS
ANDERSON       SUNNY     72  54  53 S17G35    30.06F
CP ATTERBURY + PTSUNNY   70  52  52 S9G23     30.04F
COLUMBUS       PTSUNNY   68  54  60 S17       30.05F
FISHERS *+     CLOUDY    66  57  72 S9        30.03F
FRANKFORT +    CLOUDY    72  55  54 S14G24    30.02S
GREENWOOD *+   CLOUDY    69  55  59 S8        30.04F
INDIANAPOLIS   CLOUDY    70  53  54 S13       30.01F
-EAGLE CREEK   CLOUDY    70  52  52 S13G22    30.01F
KOKOMO +       MOSUNNY   70  54  56 S18G26    30.03S
MARION +       MOSUNNY   70  53  54 S18G25    30.04F
MT COMFORT *+  CLOUDY    68  54  60 S17       30.05R
SHELBYVILLE    PTSUNNY   72  52  49 S22G31    30.04F
ZIONSVILLE +   CLOUDY    68  53  58 S14       30.03S

$$

INZ033-034-041-042-049-050-058-059-251800-
EAST CENTRAL INDIANA

CITY           SKY/WX    TMP DP  RH WIND       PRES   REMARKS
MUNCIE         MOSUNNY   72  53  51 SW15G23   30.05F
RICHMOND +     CLOUDY    68  52  56 SW18      30.10F

$$

INZ060-061-067>069-081>083-085>088-251800-
SOUTHWEST INDIANA

CITY           SKY/WX    TMP DP  RH WIND       PRES   REMARKS
EVANSVILLE     PTSUNNY   72  52  49 S20G25    29.98R
HUNTINGBURG *+ CLOUDY    72  54  53 S15G24    29.99
WASHINGTON +   PTSUNNY   70  50  49 CALM      29.97F

$$

INZ062-063-066-070>080-084-089>092-251800-
SOUTH CENTRAL AND SOUTHEAST INDIANA

CITY           SKY/WX    TMP DP  RH WIND       PRES   REMARKS
BEDFORD +      CLOUDY    72  50  46 S16G26    30.02F
BLOOMINGTON    CLOUDY    71  51  49 S15G25    30.00F
MADISON *+     SUNNY     73  48  40 S21G29    30.08F
NORTH VERNON + MOSUNNY   72  50  46 S18G24    30.08F
SEYMOUR +      PTSUNNY   73  54  49 S10G16    30.04F

$$





USA.gov is the U.S. government's official web portal to all federal, state and local government web resources and services.